Powrót do katalogu

TITAN 3C TRANSTAGE DEB

AktywnyVLEO
NORAD 3454·DEBRIS·🇺🇸 United States

Wystrzelony Oct 15, 1965 z Cape Canaveral Space Force Station

Loading…

Następne Przeloty (najbliższe 24 godziny)

TLE

ŚwieżeSource: Space-Track

Epoka: Sep 14, 2026, 03:12 UTC

1 03454U 65082PP  26257.13358982  .00006018  00000-0  32691-3 0  9997
2 03454  32.2595 185.1483 0012596  77.9706 282.2367 15.13230274259366

Śledź TITAN 3C TRANSTAGE DEB w czasie rzeczywistym z AllMySat

Download on the App Store